Location: ????????
(37.9452°N, 23.1472°E)
Time: 19:57:05
(UTC+00:00)

USA 186 - Pass Details

Date: 18 April 2024
Orbit: 379 x 440 km, 97.1° (Epoch: 27 May)

Event Time Altitude Azimuth Distance (km) Brightness Sun altitude
Exits shadow 17:45:15 - 140° (SE) 1,540 4.1 -8.1°
Reaches altitude 10° 17:45:34 10° 137° (SE) 1,415 3.9 -8.2°
Maximum altitude 17:48:15 30° 74° (ENE) 722 2.5 -8.7°
Drops below altitude 10° 17:50:56 10° 11° (N) 1,408 4.6 -9.1°
Sets 17:53:00 0° 0° (N) 2,261 5.8 -9.5°
